Hourly Weather Roundup
Issued by NWS Central Illinois

Home | Current Version | Previous Version | Text Only | Print | Product List | Glossary On
Versions: 1 2 3 4 5 6 7 8 9 10 11 12 13 14 15 16 17 18 19 20 21 22 23 24 25 26 27 28 29 30 31 32 33 34 35 36 37 38 39 40 41 42 43 44 45 46 47 48 49 50
000
NZUS43 KILX 301710
HWRILX

AREA WEATHER ROUNDUP
NATIONAL WEATHER SERVICE, LINCOLN IL
1200 PM CDT THU OCT 30 2014


CITY           SKY/WX    TMP DP  RH WIND       PRES   REMARKS
BLOOMINGTON    PTSUNNY   49  39  68 S10       30.12F
CHAMPAIGN      MOSUNNY   52  34  50 S9        30.13F
DECATUR        PTSUNNY   51  38  60 S7        30.13F
FLORA          MOSUNNY   53  37  55 SE6       30.15F
GALESBURG      CLOUDY    43  38  82 E3        30.09F
JACKSONVILLE   CLOUDY    52  40  61 S7        30.10F
LACON          CLOUDY    46  35  66 SW3       30.11F
LAWRENCEVILLE  MOSUNNY   52  30  43 VRB6      30.16F
LITCHFIELD     MOSUNNY   51  38  60 S12       30.12F
$$


CITY           SKY/WX    TMP DP  RH WIND       PRES   REMARKS
LINCOLN        CLOUDY    52  38  60 S9        30.11F
MACOMB         CLOUDY    46  39  74 S8        30.11R
MATTOON        MOSUNNY   51  36  56 SE10      30.13F
MT CARMEL AP   MOSUNNY   54  36  50 CALM      30.15F
OLNEY-NOBLE AP MOSUNNY   52  36  54 CALM      30.16S
PARIS          MOSUNNY   51  36  55 S7        30.15F
PEORIA         CLOUDY    49  38  65 S7        30.12S
PONTIAC        CLOUDY    50  37  62 SW9       30.13F
RANTOUL        MOSUNNY   52  35  52 SE8       30.13F
ROBINSON       MOSUNNY   54  36  51 CALM      30.17F
SPRINGFIELD    CLOUDY    53  40  61 S12       30.12F
TAYLORVILLE    PTSUNNY   52  37  58 S13       30.12F
$$

...REGIONAL REPORTS...


CITY           SKY/WX    TMP DP  RH WIND       PRES   REMARKS
CHICAGO O`HARE CLOUDY    49  34  56 SW9       30.11F
KANKAKEE       NOT AVBL
MOLINE         CLOUDY    47  36  65 SE5       30.10F
MOUNT VERNON   MOSUNNY   55  39  54 S6        30.15F
PITTSFIELD     RAIN      50  41  71 S6        30.10S
QUINCY         LGT RAIN  47  41  80 S17       30.03F
ROCKFORD       CLOUDY    47  34  60 SW9       30.12F
$$


CITY           SKY/WX    TMP DP  RH WIND       PRES   REMARKS
BURLINGTON     CLOUDY    48  39  71 E3        30.08R
CEDAR RAPIDS   MOSUNNY   51  40  65 SE8       30.06S
DES MOINES     MOSUNNY   57  37  47 CALM      30.02S
KIRKSVILLE     MOSUNNY   54  42  64 SW9       30.03F
OTTUMWA        SUNNY     55  37  50 SE12      30.02F
ST LOUIS       PTSUNNY   56  39  53 S8        30.11F
$$


CITY           SKY/WX    TMP DP  RH WIND       PRES   REMARKS
TERRE HAUTE    MOSUNNY   50  34  54 S5        30.16S
EVANSVILLE     SUNNY     52  35  52 CALM      30.16F
INDIANAPOLIS   PTSUNNY   50  33  52 SE6       30.14F
LAFAYETTE      MOSUNNY   49  33  54 S5        30.14F
MADISON        CLOUDY    47  35  63 CALM      30.09F
MILWAUKEE      PTSUNNY   48  33  56 SW10      30.10S
$$





USA.gov is the U.S. government's official web portal to all federal, state and local government web resources and services.